Simultaneous Nadir Overpasses (SNOs) Predictions

Prediction of SNOs between LANDSAT-8 and METOP-A Satellite Orbit:

Table of predicted SNOs for the next 14.0 days since TLE Epoch: 6/26/2015
Index Date (LANDSAT-8) Time (LANDSAT-8) Lat,Lon (LANDSAT-8) SZA (LANDSAT-8 ) Date (METOP-A) Time (METOP-A) Lat,Lon (METOP-A) SZA (METOP-A ) Distance(km) Time Diff (sec)
1 06/28/2015 22:20:42 81.19,-114.23 60.11 06/28/2015 22:20:14 81.20,-114.17 60.11 1.15 28
2 06/28/2015 23:10:08 -81.21, 53.74 119.84 06/28/2015 23:10:53 -81.22, 53.81 119.81 1.44 45
3 07/01/2015 17:54:59 81.20, -47.71 60.28 07/01/2015 17:54:32 81.20, -47.70 60.27 0.37 27
4 07/01/2015 18:44:25 -81.22, 120.28 119.67 07/01/2015 18:45:11 -81.22, 120.32 119.65 0.82 46
5 07/04/2015 13:29:17 81.20, 18.72 60.48 07/04/2015 13:28:51 81.20, 18.73 60.47 0.36 26
6 07/04/2015 14:18:43 -81.22,-173.26 119.46 07/04/2015 14:19:30 -81.22,-173.20 119.44 1.01 47
7 07/07/2015 09:03:34 81.21, 85.46 60.79 07/07/2015 09:03:09 81.21, 85.52 60.78 1.04 25
8 07/07/2015 09:53:01 -81.22,-106.87 119.21 07/07/2015 09:53:49 -81.22,-106.76 119.17 1.98 48
9 07/10/2015 04:37:51 81.21, 151.75 61.08 07/10/2015 04:37:27 81.21, 151.88 61.08 2.24 24




NCC Satellite Simultaneous Nadir Overpasses (SNOs) Prediction Service
